Eindhoven, Netherlands

7:21 AM CET on February 23, 2017 (GMT +0100)
Eindhoven Air Base

Weather History for EHEH - May, 2013

Change the Weather History Date:

Monday, May 6, 2013

  Actual Average Record
Temperature  
Mean Temperature 58 °F -  
Max Temperature 76 °F 65 °F 78 °F (2000)
Min Temperature 41 °F 47 °F 37 °F (1997)
Degree Days  
Heating Degree Days 6    
Growing Degree Days 8 (Base 50)    
Moisture  
Dew Point 45 °F    
Average Humidity 69    
Maximum Humidity 100    
Minimum Humidity 20    
Precipitation  
Precipitation 0.00 in - - ()
Sea Level Pressure  
Sea Level Pressure 30.11 in    
Wind  
Wind Speed 3 mph ()    
Max Wind Speed 15 mph    
Max Gust Speed -    
Visibility 6.1 miles    
Events      
Averages and records for this station are not official NWS values.
T = Trace of Precipitation, MM = Missing Value Source: Averaged Metar Reports

Daily Weather History Graph

Daily Weather History Graph

Search for Another Location

Airport or City:

Trip Planner

Search our weather history database for the weather conditions in past years. The results will help you decide how hot, cold, wet, or windy it might be!

Date:

Astronomy

May. 06, 2013 Rise Set
Actual Time 6:01 AM CEST 9:09 PM CEST
Civil Twilight 5:21 AM CEST 9:49 PM CEST
Nautical Twilight 4:30 AM CEST 10:41 PM CEST
Astronomical Twilight 3:23 AM CEST 11:49 PM CEST
Moon 4:19 AM CEST (5/6) 5:32 PM CEST (5/6)
Length of Visible Light 16h 27m
Length of Day
15h 08m
Waning Crescent, 13% of the Moon is Illuminated
May 6
Waning Crescent
May 10
New
May 18
First Quarter
May 25
Full
May 31
Last Quarter

Hourly Weather History & Observations

Time (CEST) Temp. Windchill Dew Point Humidity Pressure Visibility Wind Dir Wind Speed Gust Speed Precip Events Conditions
12:25 AM 51.8 °F - 44.6 °F 76% 30.18 in 6.2 mi North 4.6 mph - N/A   Unknown
12:55 AM 50.0 °F - 44.6 °F 82% 30.18 in 6.2 mi North 3.5 mph - N/A   Unknown
1:25 AM 50.0 °F - 42.8 °F 76% 30.18 in 6.2 mi North 1.2 mph - N/A   Unknown
1:55 AM 51.8 °F - 44.6 °F 76% 30.18 in 6.2 mi North 3.5 mph - N/A   Unknown
2:00 AM 51 °F - 44 °F 68% 30.19 in 10 mi North 2.2 mph - -   Partly Cloudy
2:25 AM 46.4 °F - 42.8 °F 87% 30.18 in 6.2 mi NW 1.2 mph - N/A   Unknown
2:55 AM 46.4 °F - 42.8 °F 87% 30.15 in 6.2 mi North 2.3 mph - N/A   Unknown
3:25 AM 44.6 °F - 42.8 °F 93% 30.15 in 6.2 mi NNW 1.2 mph - N/A   Unknown
3:55 AM 42.8 °F - 42.8 °F 100% 30.15 in 5.6 mi North 1.2 mph - N/A   Mist
4:25 AM 42.8 °F - 42.8 °F 100% 30.15 in 6.2 mi West 1.2 mph - N/A   Partly Cloudy
4:37 AM 42.8 °F - 42.8 °F 100% 30.15 in 4.3 mi WNW 1.2 mph - N/A   Scattered Clouds
4:41 AM 42.8 °F - 42.8 °F 100% 30.15 in 5.0 mi Calm Calm - N/A   Mostly Cloudy
4:55 AM 44.6 °F - 42.8 °F 93% 30.15 in 6.2 mi West 1.2 mph - N/A   Overcast
5:00 AM 44 °F - 44 °F 97% 30.16 in 6 mi West 2.2 mph - -   Overcast
5:11 AM 44.6 °F - 42.8 °F 93% 30.15 in 4.3 mi WNW 1.2 mph - N/A   Mostly Cloudy
5:17 AM 44.6 °F - 42.8 °F 93% 30.12 in 5.0 mi NW 1.2 mph - N/A   Mostly Cloudy
5:25 AM 42.8 °F - 42.8 °F 100% 30.15 in 4.3 mi WNW 1.2 mph - N/A   Mostly Cloudy
5:35 AM 42.8 °F - 42.8 °F 100% 30.12 in 5.0 mi NW 1.2 mph - N/A   Mostly Cloudy
5:48 AM 42.8 °F - 41.0 °F 93% 30.12 in 5.0 mi WNW 1.2 mph - N/A   Partly Cloudy
5:55 AM 42.8 °F - 41.0 °F 93% 30.12 in 4.3 mi NNW 1.2 mph - N/A   Partly Cloudy
6:02 AM 42.8 °F - 41.0 °F 93% 30.12 in 5.0 mi NNW 2.3 mph - N/A   Partly Cloudy
6:05 AM 42.8 °F - 41.0 °F 93% 30.12 in 4.3 mi WNW 1.2 mph - N/A   Scattered Clouds
6:14 AM 42.8 °F - 42.8 °F 100% 30.12 in - WNW 1.2 mph - N/A   Mist
6:16 AM 42.8 °F - 41.0 °F 93% 30.12 in 3.1 mi WNW 1.2 mph - N/A   Mist
6:25 AM 42.8 °F - 41.0 °F 93% 30.12 in 3.1 mi WNW 2.3 mph - N/A   Mist
6:32 AM 42.8 °F - 41.0 °F 93% 30.12 in 3.7 mi North 2.3 mph - N/A   Mist
6:33 AM 42.8 °F - 41.0 °F 93% 30.12 in 3.7 mi NNW 2.3 mph - N/A   Mist
6:36 AM 42.8 °F 41.1 °F 42.8 °F 100% 30.12 in 5.0 mi NNW 3.5 mph - N/A   Mist
6:46 AM 42.8 °F - 42.8 °F 100% 30.12 in 5.0 mi NNW 2.3 mph - N/A   Mist
6:55 AM 44.6 °F - 42.8 °F 93% 30.12 in 4.3 mi NNW 2.3 mph - N/A   Mist
6:58 AM 44.6 °F - 42.8 °F 93% 30.12 in 5.0 mi NW 2.3 mph - N/A   Mist
7:08 AM 44.6 °F - 44.6 °F 100% 30.15 in 5.0 mi North 1.2 mph - N/A   Mist
7:23 AM 46.4 °F - 44.6 °F 93% 30.15 in 5.0 mi NNW 1.2 mph - N/A   Overcast
7:25 AM 46.4 °F - 44.6 °F 93% 30.15 in 4.3 mi NNW 1.2 mph - N/A   Overcast
7:40 AM 50.0 °F - 46.4 °F 87% 30.15 in 5.0 mi North 1.2 mph - N/A   Mist
7:55 AM 50.0 °F - 46.4 °F 87% 30.15 in 5.6 mi NNW 1.2 mph - N/A   Mist
8:00 AM 53 °F - 47 °F 75% 30.16 in 6 mi Calm Calm - -   Partly Cloudy
8:25 AM 55.4 °F - 48.2 °F 77% 30.15 in 6.2 mi North 1.2 mph - N/A   Unknown
8:55 AM 59.0 °F - 46.4 °F 63% 30.12 in 6.2 mi ENE 2.3 mph - N/A   Unknown
9:25 AM 60.8 °F - 46.4 °F 59% 30.12 in 6.2 mi ESE 2.3 mph - N/A   Unknown
9:55 AM 62.6 °F - 44.6 °F 52% 30.12 in 6.2 mi SE 1.2 mph - N/A   Unknown
10:25 AM 64.4 °F - 46.4 °F 52% 30.12 in 6.2 mi NW 1.2 mph - N/A   Unknown
10:55 AM 66.2 °F - 48.2 °F 52% 30.12 in 6.2 mi NE 3.5 mph - N/A   Unknown
11:00 AM 66 °F - 47 °F 39% 30.14 in 6 mi NNE 4.5 mph - -   Light Haze
11:25 AM 68.0 °F - 46.4 °F 46% 30.12 in 6.2 mi North 3.5 mph - N/A   Partly Cloudy
11:33 AM 68.0 °F - 46.4 °F 46% 30.12 in 6.2 mi North 3.5 mph - N/A   Partly Cloudy
11:55 AM 69.8 °F - 44.6 °F 40% 30.12 in 6.2 mi NE 2.3 mph - N/A   Unknown
12:25 PM 71.6 °F - 46.4 °F 41% 30.09 in 6.2 mi NNW 2.3 mph - N/A   Partly Cloudy
12:55 PM 71.6 °F - 46.4 °F 41% 30.09 in 6.2 mi North 3.5 mph - N/A   Partly Cloudy
1:25 PM 73.4 °F - 44.6 °F 36% 30.09 in 6.2 mi NNW 4.6 mph - N/A   Unknown
1:55 PM 73.4 °F - 42.8 °F 33% 30.06 in 6.2 mi SW 4.6 mph - N/A   Partly Cloudy
2:00 PM 73 °F - 44 °F 24% 30.09 in 16 mi 2.2 mph - -   Partly Cloudy
2:25 PM 75.2 °F - 44.6 °F 34% 30.06 in 6.2 mi NNW 4.6 mph - N/A   Scattered Clouds
2:55 PM 73.4 °F - 42.8 °F 33% 30.06 in 6.2 mi North 3.5 mph - N/A   Overcast
3:25 PM 73.4 °F - 44.6 °F 36% 30.06 in 6.2 mi NNE 1.2 mph - N/A   Unknown
3:55 PM 73.4 °F - 42.8 °F 33% 30.04 in 6.2 mi NNE 2.3 mph - N/A   Mostly Cloudy
4:25 PM 73.4 °F - 42.8 °F 33% 30.04 in 6.2 mi North 2.3 mph - N/A   Mostly Cloudy
4:55 PM 75.2 °F - 42.8 °F 31% 30.04 in 6.2 mi NW 5.8 mph - N/A   Mostly Cloudy
5:00 PM 76 °F - 43 °F 20% 30.05 in 17 mi NW 8.9 mph - -   Mostly Cloudy
5:25 PM 73.4 °F - 42.8 °F 33% 30.04 in 6.2 mi NW 5.8 mph - N/A   Overcast
5:55 PM 73.4 °F - 46.4 °F 38% 30.04 in 6.2 mi North 5.8 mph - N/A   Overcast
6:25 PM 71.6 °F - 46.4 °F 41% 30.04 in 6.2 mi North 12.7 mph - N/A   Scattered Clouds
6:36 PM 71.6 °F - 48.2 °F 43% 30.04 in 6.2 mi NNW 15.0 mph - N/A   Scattered Clouds
6:55 PM 71.6 °F - 50.0 °F 46% 30.04 in 6.2 mi NNW 11.5 mph - N/A   Unknown
7:25 PM 69.8 °F - 48.2 °F 46% 30.04 in 6.2 mi NNW 13.8 mph - N/A   Overcast
7:55 PM 68.0 °F - 48.2 °F 49% 30.04 in 6.2 mi NNW 11.5 mph - N/A   Partly Cloudy
8:00 PM 67 °F - 49 °F 41% 30.04 in 9 mi NNW 11.2 mph - -   Partly Cloudy
8:25 PM 66.2 °F - 48.2 °F 52% 30.04 in 6.2 mi NNW 11.5 mph - N/A   Unknown
8:55 PM 64.4 °F - 48.2 °F 56% 30.04 in 6.2 mi NNW 8.1 mph - N/A   Unknown
9:25 PM 62.6 °F - 48.2 °F 59% 30.04 in 6.2 mi NNW 9.2 mph - N/A   Partly Cloudy
9:55 PM 60.8 °F - 48.2 °F 63% 30.04 in 6.2 mi NNW 8.1 mph - N/A   Partly Cloudy
10:25 PM 59.0 °F - 48.2 °F 67% 30.04 in 6.2 mi NW 5.8 mph - N/A   Overcast
10:55 PM 57.2 °F - 48.2 °F 72% 30.04 in 6.2 mi NW 5.8 mph - N/A   Overcast
11:00 PM 58 °F - 48 °F 62% 30.05 in 8 mi NW 6.7 mph - -   Mostly Cloudy
11:25 PM 57.2 °F - 48.2 °F 72% 30.04 in 6.2 mi NNW 5.8 mph - N/A   Overcast
11:55 PM 57.2 °F - 48.2 °F 72% 30.04 in 6.2 mi NNW 5.8 mph - N/A   Unknown